Location: Asheville, NC
(35.6000°N, 82.5500°W)
Time: 22:48:37
(UTC-05:00)

KKS-1 - Pass Details

Date: 04 January 2018
Orbit: 637 x 651 km, 98.3° (Epoch: 17 January)

Event Time Altitude Azimuth Distance (km) Brightness Sun altitude
Rises 17:49:53 0° 14° (NNE) 2,941 ? -4.4°
Reaches altitude 10° 17:52:06 10° 16° (NNE) 2,030 ? -4.8°
Maximum altitude 17:56:31 78° 102° (ESE) 656 ? -5.6°
Drops below altitude 10° 18:00:55 10° 189° (S) 2,022 ? -6.4°
Sets 18:03:07 0° 191° (S) 2,929 ? -6.8°
